[[{"header":{"parameterUnit":"m.s-1","parameterCategory":1,"la1":30.2991,"la2":30.254,"lo1":-89.0895,"lo2":-89.0444,"dy":0.0017,"dx":0.0017,"nx":28,"ny":28,"refTime":"2024-10-05T03:00:00:Z","depth":0,"parameterNumber":2,"parameterNumberName":"U-component_of_WINDS"},"data":[0,0,0,0,0,0,0,0,0,0,0,0,0,0,0,0,0,0,0,0,0,0,0,0,0,0,0,0,0,0,0,0,0,0,0,0,0,0,0,0,0,0,0,0,0,0,0,0,0,0,0,0,0,0,0,0,0,0,-2.8781,-2.8782,0,-2.8832,-2.8832,-2.8833,-2.8758,-2.8755,-2.8753,-2.875,-2.8803,-2.8807,-2.881,0,0,0,0,0,0,0,0,0,0,0,0,0,-2.8619,-2.8623,-2.8781,-2.8782,-2.8782,-2.8832,-2.8832,-2.8833,-2.8758,-2.8755,-2.8752,-2.8749,-2.8802,-2.8806,-2.8811,0,0,0,0,0,0,0,0,0,0,0,0,0,-2.8682,-2.8624,-2.8781,-2.8751,-2.8749,-2.8831,-2.8832,-2.8833,-2.8759,-2.8755,-2.8751,-2.8747,-2.88,-2.8806,-2.8811,-2.8926,0,0,-2.8829,-2.8832,0,0,0,0,0,0,0,0,-2.8678,-2.8688,-2.8755,-2.8753,-2.8751,-2.8784,-2.8794,-2.8864,-2.876,-2.8755,-2.875,-2.8745,-2.88,-2.8805,-2.8824,-2.8928,-2.8931,-2.883,-2.8833,-2.8836,-2.8837,0,0,0,0,0,0,0,-2.8674,-2.8685,-2.8801,-2.8756,-2.8753,-2.8735,-2.8739,-2.8807,-2.8799,-2.8755,-2.875,-2.8757,-2.8798,-2.8818,-2.8824,-2.8931,-2.8829,-2.8835,-2.8838,-2.884,-2.9132,-2.9137,0,0,0,0,0,0,-2.8673,-2.8682,-2.8799,-2.8803,-2.8704,-2.8741,-2.8746,-2.8778,-2.8798,-2.8797,-2.876,-2.8753,-2.881,-2.8818,-2.8826,-2.8962,-2.8835,-2.8841,-2.8844,-2.9128,-2.9133,-2.9138,0,0,0,0,0,0,-2.867,-2.8685,-2.8797,-2.8741,-2.8754,-2.8748,-2.8784,-2.8781,-2.8801,-2.8802,-2.88,-2.8782,-2.8808,-2.8818,-2.8902,-2.8963,-2.8844,-2.8849,-2.9123,-2.913,-2.9136,-2.9235,0,0,0,0,0,0,-2.8666,-2.8684,-2.8728,-2.8742,-2.8757,-2.8873,-2.8788,-2.8785,-2.8811,-2.8802,-2.8822,-2.8822,-2.8805,-2.8893,-2.8907,-2.8968,-2.8853,-2.9118,-2.9126,-2.9134,-2.9226,-2.9244,-2.9259,0,0,0,0,0,-2.866,-2.8754,-2.873,-2.8745,-2.8812,-2.8876,-2.8885,-2.8864,-2.8816,-2.886,-2.886,-2.8821,-2.8953,-2.8903,-2.8918,-2.8982,-2.9114,-2.9124,-2.9133,-2.9219,-2.924,-2.9259,0,0,0,0,0,0,-2.8747,-2.8755,-2.8729,-2.883,-2.8853,-2.8864,-2.8919,-2.8887,-2.8924,-2.8915,-2.8887,-2.8892,-2.8982,-2.899,-2.8933,-2.9093,-2.9026,-2.9039,-2.9086,-2.9106,-2.9122,-2.9119,-2.8858,0,0,0,0,0,-2.8778,-2.8829,-2.8834,-2.8922,-2.8935,-2.8925,-2.8952,-2.8934,-2.8956,-2.8966,-2.8972,-2.8996,-2.9043,-2.9074,-2.9117,-2.9226,-2.9229,-2.9277,-2.9293,-2.9307,-2.9319,-2.9377,-2.9399,-2.917,-2.917,-2.917,0,0,-2.8842,-2.8853,-2.8887,-2.894,-2.8955,-2.901,-2.8934,-2.8994,-2.9035,-2.8975,-2.9055,-2.9061,-2.9085,-2.9182,-2.9225,-2.9191,-2.9383,-2.9319,-2.933,-2.9335,-2.939,-2.9411,-2.9431,-2.9176,-2.9175,-2.9174,0,0,-2.8987,-2.9,-2.9076,-2.9092,-2.9117,-2.9109,-2.9127,-2.9142,-2.9144,-2.9223,-2.918,-2.9226,-2.9307,-2.9327,-2.9347,-2.9498,-2.9464,-2.9513,-2.96,-2.9657,-2.9675,-2.9691,-2.9745,-2.9765,-2.9524,-2.9525,-2.9525,0,-2.9064,-2.9145,-2.9118,-2.9182,-2.9207,-2.9154,-2.9231,-2.9248,-2.9286,-2.9304,-2.9265,-2.9365,-2.9378,-2.9479,-2.9515,-2.9533,-2.9553,-2.9512,-2.9674,-2.969,-2.9704,-2.9756,-2.9777,-2.9531,-2.953,-2.9529,-2.9529,0,-2.9239,-2.9295,-2.9352,-2.939,-2.942,-2.949,-2.9474,-2.9508,-2.9487,-2.9483,-2.9564,-2.9577,-2.9622,-2.9644,-2.9624,-2.9742,-2.972,-2.9678,-2.961,-2.9732,-2.9781,-2.9801,-2.9539,-2.9537,-2.9535,-2.9534,0,0,-2.9442,-2.9463,-2.9485,-2.9501,-2.9523,-2.9566,-2.9632,-2.9676,-2.9706,-2.9733,-2.9789,-2.9858,-2.9819,-2.9842,-2.9823,-2.9872,-2.9992,-2.9824,-2.9824,-2.9856,-3.0124,-3.0157,-3.018,-2.9968,-2.9972,-2.9975,-3.0122,0,-2.9588,-2.9704,-2.9682,-2.9795,-2.9847,-2.9797,-2.9855,-2.9875,-2.9873,-2.9916,-2.9913,-2.9963,-2.9907,-2.9921,-2.9968,-2.9968,-3.0046,-2.9956,-3.0021,-3.0023,-3.0018,-3.0206,-3.0241,-3.038,-3.0141,-3.0144,-3.0146,0,-2.9774,-2.9808,-2.9927,-2.994,-2.9961,-3.0014,-3.0051,-3.0093,-3.0114,-3.0109,-3.0134,-3.0106,-3.0172,-3.0101,-3.0192,-3.0132,-3.0157,-3.016,-3.0165,-3.0172,-3.0094,-3.0219,-3.0423,-3.0445,-3.0176,-3.0173,-3.0171,0,-2.9913,-2.9987,-3.0068,-3.0083,-3.01,-3.0139,-3.0148,-3.0165,-3.0192,-3.0224,-3.0242,-3.0282,-3.0304,-3.0336,-3.0318,-3.0268,-3.0413,-3.0341,-3.0411,-3.0412,-3.0446,-3.0445,-3.0659,-3.0459,-3.0459,-3.0458,-3.0458,0,-3.0079,-3.0154,-3.013,-3.018,-3.0262,-3.0235,-3.0317,-3.032,-3.0335,-3.0385,-3.0343,-3.039,-3.0364,-3.0409,-3.0395,-3.0473,-3.0483,-3.0481,-3.0477,-3.0486,-3.0487,-3.0504,-3.0494,-3.0464,-3.0463,-3.0462,-3.0461,0,-3.0249,-3.0236,-3.0321,-3.0329,-3.0333,-3.0394,-3.0401,-3.0447,-3.0441,-3.0504,-3.0517,-3.0508,-3.0559,-3.0544,-3.0599,-3.059,-3.0689,-3.0672,-3.0682,-3.0679,-3.0751,-3.0745,-3.0985,-3.1016,-3.0795,-3.0797,-3.0798,0,-3.0357,-3.0414,-3.0428,-3.0458,-3.047,-3.0519,-3.0546,-3.0521,-3.0551,-3.0579,-3.0622,-3.0669,-3.0706,-3.0789,-3.0787,-3.0829,-3.0813,-3.0894,-3.0819,-3.0827,-3.0816,-3.0814,-3.082,-3.091,-3.0913,-3.0915,-3.0916,0,-3.0551,-3.0541,-3.0583,-3.0622,-3.0655,-3.0685,-3.071,-3.0737,-3.0713,-3.0749,-3.0801,-3.0829,-3.0884,-3.0932,-3.0969,-3.0978,-3.0945,-3.094,-3.0958,-3.0969,-3.0974,-3.0974,-3.0725,-3.0935,-3.0933,-3.0932,-3.0931,-3.093,-3.0694,-3.0742,-3.076,-3.0807,-3.0823,-3.0848,-3.0892,-3.0891,-3.0933,-3.0976,-3.0958,-3.1018,-3.1036,-3.1083,-3.1097,-3.1142,-3.1111,-3.1138,-3.1146,-3.1153,-3.1163,-3.0965,-3.1149,-3.1148,-3.1148,-3.1147,-3.1147,0,-3.0887,-3.0896,-3.0939,-3.0976,-3.1013,-3.0976,-3.1002,-3.1036,-3.1088,-3.1108,-3.1144,-3.1203,-3.1248,-3.1249,-3.1292,-3.1328,-3.1314,-3.134,-3.1338,-3.1341,-3.1188,-3.1168,-3.1351,-3.1351,-3.1351,-3.1351,-3.1351,-3.1351,-3.0992,-3.1071,-3.1064,-3.115,-3.1158,-3.1215,-3.1233,-3.1256,-3.1272,-3.1339,-3.1376,-3.1376,-3.1389,-3.1431,-3.1471,-3.147,-3.1488,-3.1522,-3.1515,-3.1372,-3.1352,-3.1333,-3.1314,-3.1525,-3.1526,-3.1665,-3.1666,-3.1667]},{"header":{"parameterUnit":"m.s-1","parameterCategory":1,"la1":30.2991,"la2":30.254,"lo1":-89.0895,"lo2":-89.0444,"dy":0.0017,"dx":0.0017,"nx":28,"ny":28,"refTime":"2024-10-05T03:00:00:Z","depth":0,"parameterNumber":3,"parameterNumberName":"V-component_of_WINDS"},"data":[0,0,0,0,0,0,0,0,0,0,0,0,0,0,0,0,0,0,0,0,0,0,0,0,0,0,0,0,0,0,0,0,0,0,0,0,0,0,0,0,0,0,0,0,0,0,0,0,0,0,0,0,0,0,0,0,0,0,-4.85,-4.85,0,-4.8542,-4.8542,-4.8543,-4.8484,-4.8482,-4.848,-4.8478,-4.8517,-4.852,-4.8523,0,0,0,0,0,0,0,0,0,0,0,0,0,-4.8365,-4.8368,-4.85,-4.85,-4.8501,-4.8542,-4.8542,-4.8543,-4.8484,-4.8482,-4.8479,-4.8477,-4.8516,-4.852,-4.8523,0,0,0,0,0,0,0,0,0,0,0,0,0,-4.8417,-4.8369,-4.85,-4.8477,-4.8475,-4.8542,-4.8542,-4.8543,-4.8485,-4.8481,-4.8478,-4.8475,-4.8515,-4.852,-4.8524,-4.8614,0,0,-4.8538,-4.854,0,0,0,0,0,0,0,0,-4.8414,-4.8422,-4.848,-4.8478,-4.8477,-4.8504,-4.8509,-4.8567,-4.8485,-4.8481,-4.8477,-4.8474,-4.8515,-4.852,-4.8534,-4.8616,-4.8618,-4.8538,-4.8541,-4.8543,-4.8544,0,0,0,0,0,0,0,-4.841,-4.842,-4.8516,-4.848,-4.8479,-4.8463,-4.8467,-4.852,-4.8515,-4.8481,-4.8477,-4.8483,-4.8514,-4.853,-4.8535,-4.8618,-4.8538,-4.8542,-4.8545,-4.8547,-4.8774,-4.8777,0,0,0,0,0,0,-4.841,-4.8417,-4.8515,-4.8518,-4.8437,-4.8468,-4.8472,-4.8499,-4.8514,-4.8514,-4.8485,-4.848,-4.8524,-4.853,-4.8536,-4.8641,-4.8543,-4.8547,-4.855,-4.8771,-4.8775,-4.8778,0,0,0,0,0,0,-4.8407,-4.8419,-4.8513,-4.8466,-4.8477,-4.8473,-4.8504,-4.8501,-4.8517,-4.8518,-4.8516,-4.8503,-4.8522,-4.853,-4.8595,-4.8642,-4.8549,-4.8553,-4.8767,-4.8772,-4.8777,-4.8853,0,0,0,0,0,0,-4.8404,-4.8419,-4.8454,-4.8468,-4.848,-4.8573,-4.8506,-4.8504,-4.8525,-4.8519,-4.8534,-4.8533,-4.852,-4.8589,-4.8599,-4.8646,-4.8557,-4.8763,-4.8769,-4.8775,-4.8847,-4.886,-4.8872,0,0,0,0,0,-4.8399,-4.8474,-4.8456,-4.8469,-4.8524,-4.8576,-4.8583,-4.8567,-4.8529,-4.8564,-4.8564,-4.8533,-4.8635,-4.8596,-4.8607,-4.8656,-4.876,-4.8767,-4.8775,-4.8841,-4.8858,-4.8872,0,0,0,0,0,0,-4.8466,-4.8475,-4.8456,-4.8537,-4.8556,-4.8566,-4.8609,-4.8585,-4.8615,-4.8607,-4.8585,-4.8588,-4.8658,-4.8664,-4.862,-4.8743,-4.8691,-4.8701,-4.8737,-4.8753,-4.8766,-4.8762,-4.856,0,0,0,0,0,-4.849,-4.8532,-4.8538,-4.8609,-4.862,-4.8613,-4.8635,-4.8621,-4.8639,-4.8647,-4.8652,-4.867,-4.8706,-4.873,-4.8763,-4.8847,-4.8849,-4.8886,-4.8899,-4.891,-4.8919,-4.8961,-4.8978,-4.8803,-4.8803,-4.8803,0,0,-4.854,-4.8551,-4.8579,-4.8623,-4.8636,-4.8679,-4.862,-4.8669,-4.87,-4.8654,-4.8716,-4.872,-4.8738,-4.8813,-4.8846,-4.882,-4.8967,-4.8919,-4.8928,-4.8931,-4.8971,-4.8987,-4.9002,-4.8808,-4.8807,-4.8807,0,0,-4.8653,-4.8667,-4.8727,-4.8741,-4.8761,-4.8756,-4.8771,-4.8784,-4.8785,-4.8847,-4.8813,-4.8849,-4.8912,-4.8926,-4.8941,-4.9059,-4.903,-4.907,-4.9136,-4.9179,-4.9192,-4.9204,-4.9245,-4.926,-4.9079,-4.9079,-4.9079,0,-4.8713,-4.8778,-4.876,-4.8811,-4.883,-4.8791,-4.8851,-4.8865,-4.8895,-4.8909,-4.8879,-4.8956,-4.8966,-4.9043,-4.9071,-4.9086,-4.91,-4.9068,-4.9192,-4.9204,-4.9215,-4.9253,-4.9268,-4.9084,-4.9083,-4.9083,-4.9082,0,-4.8849,-4.8894,-4.894,-4.8971,-4.8995,-4.905,-4.9039,-4.9066,-4.905,-4.9047,-4.911,-4.912,-4.9154,-4.9171,-4.9156,-4.9245,-4.9228,-4.9196,-4.9142,-4.9236,-4.9272,-4.9286,-4.909,-4.9089,-4.9087,-4.9086,0,0,-4.9005,-4.9025,-4.9042,-4.9055,-4.9074,-4.9108,-4.916,-4.9194,-4.9216,-4.9238,-4.928,-4.9334,-4.9304,-4.9321,-4.9307,-4.9344,-4.9434,-4.9307,-4.9307,-4.9329,-4.9531,-4.9555,-4.9572,-4.9416,-4.9419,-4.9421,-4.9529,0,-4.9117,-4.9209,-4.9194,-4.9281,-4.9322,-4.9285,-4.933,-4.9346,-4.9344,-4.9377,-4.9375,-4.9413,-4.9372,-4.9382,-4.9417,-4.9416,-4.9474,-4.9408,-4.9453,-4.9455,-4.9448,-4.9591,-4.9616,-4.9718,-4.9543,-4.9546,-4.9547,0,-4.926,-4.9288,-4.938,-4.9391,-4.9407,-4.9449,-4.9477,-4.951,-4.9526,-4.9523,-4.9542,-4.952,-4.957,-4.9517,-4.9585,-4.954,-4.9557,-4.956,-4.9563,-4.9566,-4.9506,-4.9596,-4.975,-4.9765,-4.9569,-4.9567,-4.9566,0,-4.9363,-4.9423,-4.9485,-4.9497,-4.9513,-4.9542,-4.955,-4.9563,-4.9584,-4.9609,-4.9622,-4.9652,-4.9669,-4.9692,-4.9678,-4.9641,-4.9748,-4.9694,-4.9745,-4.9745,-4.9768,-4.9766,-4.9926,-4.9782,-4.9781,-4.9781,-4.9781,0,-4.9489,-4.9546,-4.9532,-4.957,-4.9632,-4.9614,-4.9676,-4.9678,-4.9691,-4.9727,-4.9697,-4.9732,-4.9713,-4.9746,-4.9735,-4.9792,-4.98,-4.9797,-4.9793,-4.9799,-4.9799,-4.9809,-4.9801,-4.9785,-4.9784,-4.9784,-4.9783,0,-4.9614,-4.9607,-4.9672,-4.9681,-4.9685,-4.973,-4.9737,-4.9772,-4.9768,-4.9815,-4.9825,-4.9819,-4.9856,-4.9845,-4.9885,-4.9878,-4.9949,-4.9937,-4.9944,-4.9941,-4.9992,-4.9986,-5.0162,-5.0184,-5.0027,-5.0028,-5.003,0,-4.9695,-4.9738,-4.9752,-4.9774,-4.9784,-4.9822,-4.9843,-4.9826,-4.9848,-4.987,-4.9902,-4.9936,-4.9963,-5.0024,-5.0022,-5.0052,-5.004,-5.0099,-5.0044,-5.0048,-5.0039,-5.0036,-5.0039,-5.011,-5.0112,-5.0113,-5.0114,0,-4.9838,-4.9831,-4.9863,-4.9894,-4.992,-4.9943,-4.9963,-4.9983,-4.9967,-4.9994,-5.0032,-5.0052,-5.0093,-5.0127,-5.0154,-5.016,-5.0135,-5.0132,-5.0145,-5.0151,-5.0152,-5.0151,-4.9973,-5.0128,-5.0126,-5.0125,-5.0125,-5.0124,-4.9942,-4.9978,-4.9993,-5.0028,-5.0042,-5.0061,-5.0094,-5.0094,-5.0125,-5.0158,-5.0145,-5.0189,-5.0202,-5.0236,-5.0246,-5.0278,-5.0255,-5.0275,-5.0279,-5.0284,-5.029,-5.0148,-5.0283,-5.0283,-5.0282,-5.0282,-5.0282,0,-5.0081,-5.0089,-5.0122,-5.0151,-5.0179,-5.0153,-5.0173,-5.0198,-5.0237,-5.0252,-5.0279,-5.0322,-5.0354,-5.0355,-5.0385,-5.0411,-5.0399,-5.0419,-5.0416,-5.0418,-5.0309,-5.0294,-5.0428,-5.0428,-5.0428,-5.0428,-5.0428,-5.0428,-5.0157,-5.0216,-5.0212,-5.0276,-5.0283,-5.0325,-5.0339,-5.0356,-5.0368,-5.0417,-5.0444,-5.0445,-5.0454,-5.0484,-5.0512,-5.0511,-5.0523,-5.0547,-5.0542,-5.044,-5.0426,-5.0412,-5.0397,-5.055,-5.055,-5.0647,-5.0648,-5.0649]}]]